Tracking 28790 objects as of 18-Apr-2024
HD Live streaming from Space Station
objects crossing your sky now

SL-8 R/B

Track SL-8 R/B now!
10-day predictions


NORAD ID: 11751
Int'l Code: 1980-026B
Perigee: 969.8 km
Apogee: 992.2 km
Inclination: 65.8 °
Period: 104.6 minutes
Semi major axis: 7351 km
RCS: 5.1616 m2 (large)
Launch date: April 3, 1980
Source: Commonwealth of Independent States (former USSR) (CIS)
Launch site: PLESETSK MISSILE AND SPACE COMPLEX (PKMTR)

Note: This is a ROCKET BODY
Your satellite tracking list
Your tracking list is empty




NASA's NSSDC Master Catalog

Two Line Element Set (TLE):
1 11751U 80026B   24109.37762694 -.00000009  00000-0  72885-4 0  9995
2 11751  65.8405  70.5931 0015226 316.3581 209.9888 13.77194988213741
Source of the keplerian elements: AFSPC